Location: ????
(30.1475°N, 31.1342°E)
Time: 11:22:27
(UTC+00:00)

SL-24 R/B - RUBIN 2 - Pass Details

Date: 24 March 2023
Orbit: 586 x 1007 km, 64.6° (Epoch: 02 June)

Event Time Altitude Azimuth Distance (km) Brightness Sun altitude
Rises 16:38:35 0° 316° (NW) 3,436 8.3 -7.2°
Reaches altitude 10° 16:41:22 10° 304° (WNW) 2,562 7.9 -7.8°
Maximum altitude 16:46:13 26° 250° (WSW) 1,771 6.7 -8.8°
Drops below altitude 10° 16:51:22 10° 196° (SSW) 2,727 7.0 -9.9°
Sets 16:54:27 0° 185° (S) 3,701 7.5 -10.6°
